GFSNGP_700_rhum_048.txt.gz
RH
56 57 64 71 69 70 74 72 68 57 36 34 58 78 80 74 74 68 64 60 60 61 55 48 37 34 30 28 27 23 23 23 27 31 33 36 39 42 50 66 92 94 96 91
66 63 61 58 62 67 68 72 68 56 38 55 87 81 79 77 71 68 67 64 63 65 64 56 44 47 45 46 44 36 36 41 36 48 39 30 34 37 44 69 83 98 99 98
77 68 71 69 44 50 51 53 52 63 56 81 87 82 78 78 71 69 65 63 63 61 54 47 50 54 55 52 44 40 52 50 65 77 79 66 49 70 70 94 99 100 99 99
87 77 80 54 71 74 66 63 55 54 79 94 83 74 72 74 73 73 66 62 61 64 67 68 58 62 63 58 66 78 89 82 77 79 72 84 98 97 91 98 98 98 99 96
87 83 68 57 73 83 71 69 75 82 92 88 79 72 72 72 75 76 64 61 60 61 57 75 71 71 73 70 75 90 89 82 79 81 88 92 92 97 98 99 100 100 99 98
99 93 74 88 76 90 90 100 99 94 87 82 77 76 74 75 77 76 68 63 58 65 61 63 68 70 66 66 74 81 84 86 87 79 79 84 87 92 92 95 97 97 98 96
96 92 79 74 89 96 97 99 98 92 90 81 78 78 77 78 76 76 76 71 63 62 69 69 70 68 68 67 68 70 77 80 80 79 81 84 86 86 81 70 58 40 28 26
99 94 86 62 80 98 98 98 99 96 92 79 77 79 80 77 75 78 81 79 71 64 67 76 75 72 75 75 68 65 68 63 46 31 27 27 28 27 25 23 19 16 14 13
83 82 68 78 100 97 98 98 96 98 93 77 78 79 82 80 77 78 82 86 85 76 63 66 69 64 56 44 31 28 26 26 27 30 30 26 22 19 17 16 15 15 15 15
79 70 75 85 94 93 97 98 97 97 93 83 78 75 82 83 80 80 83 88 88 88 66 59 59 44 32 30 26 24 28 31 31 29 25 22 19 18 18 18 17 17 15 11
83 77 85 86 89 95 88 94 96 92 88 85 80 80 74 81 81 79 84 91 97 91 77 57 45 35 32 28 25 28 31 32 30 27 24 21 20 21 22 21 19 16 12 8
86 75 79 82 90 84 85 86 83 83 80 78 83 77 80 74 81 80 84 90 98 100 95 63 42 34 32 27 25 30 32 32 30 27 24 22 23 25 24 21 18 15 11 7
78 79 80 84 87 84 80 73 68 68 66 66 80 84 80 79 78 82 84 87 96 98 98 94 68 37 33 29 26 30 33 33 30 29 26 25 27 28 25 23 20 17 14 9
76 79 79 89 89 83 76 73 71 70 69 69 67 80 76 85 83 84 91 98 99 98 100 98 92 58 35 32 26 30 33 33 31 30 29 29 31 29 28 27 25 21 16 10
72 78 78 81 79 81 86 85 94 95 93 88 78 77 78 80 85 86 90 98 99 100 99 100 97 91 45 34 27 29 34 34 32 32 32 33 34 33 33 32 28 24 18 10
74 82 94 86 80 84 86 87 91 99 100 100 98 89 81 78 80 80 83 91 99 100 99 100 99 96 79 37 30 28 34 34 32 33 35 37 37 39 41 39 32 26 18 10
92 94 89 78 73 72 70 68 81 97 99 100 98 91 83 80 75 77 85 87 100 100 100 99 98 97 87 40 32 28 33 34 33 34 38 39 41 46 49 44 35 28 18 7
86 91 99 99 100 100 99 80 82 82 96 100 100 97 95 89 86 87 92 99 100 100 99 99 98 97 93 42 34 28 32 35 34 35 39 41 45 53 53 47 37 26 13 5
100 100 98 100 100 100 96 90 88 84 85 93 99 100 98 99 100 98 95 97 99 99 99 98 99 97 73 40 36 28 32 35 34 35 40 42 49 53 53 48 36 23 8 5
98 98 98 98 99 99 100 91 78 80 92 97 98 99 98 95 97 98 100 100 100 100 98 99 98 96 76 42 36 29 31 35 35 36 41 44 50 53 54 49 34 15 6 8
95 95 96 95 92 97 96 95 95 95 96 92 90 93 98 99 100 98 96 98 98 99 98 98 97 98 70 44 39 29 43 38 36 36 40 44 50 54 54 48 30 9 9 11
88 94 93 86 77 76 77 77 80 79 81 84 83 81 96 99 99 99 98 98 98 98 98 98 97 96 60 51 41 49 45 50 59 36 39 43 49 56 56 47 21 9 16 12
95 96 96 95 89 77 70 66 65 64 61 58 62 79 80 83 96 97 98 98 98 98 98 97 97 96 74 56 71 78 58 79 40 36 38 42 49 56 57 41 12 14 21 20
91 89 86 83 77 68 61 55 49 43 42 50 58 59 60 85 89 86 94 96 97 97 97 97 97 96 88 83 93 61 81 64 36 36 37 40 47 57 60 28 9 21 26 26
89 84 82 78 70 63 54 40 26 14 9 12 29 45 60 63 61 92 92 87 96 97 97 97 97 97 96 94 93 96 92 46 38 38 40 49 45 72 81 18 13 28 27 26
67 56 47 38 26 18 10 4 2 2 2 2 2 4 17 43 64 69 76 98 100 100 100 99 98 97 97 96 96 95 87 64 68 44 68 94 93 94 75 12 21 29 27 32
20 16 13 8 5 3 3 3 2 2 2 2 2 2 2 3 14 50 76 82 99 100 100 100 99 98 97 98 97 96 96 95 94 90 89 96 96 96 48 13 30 31 36 52

GFSNGP_700_rhum_051.txt.gz
RH
52 47 53 58 62 73 78 74 64 56 45 53 52 61 58 74 73 71 67 64 59 55 53 52 50 43 34 34 32 31 29 29 29 34 29 27 28 24 29 33 37 44 73 85
66 59 56 54 57 70 65 64 71 54 49 54 50 65 72 75 74 71 69 62 58 55 57 55 54 43 39 38 45 43 38 35 44 48 51 52 56 44 27 29 35 51 73 83
84 69 65 72 37 38 44 45 44 76 50 74 80 85 76 75 74 73 68 62 56 54 56 60 62 52 52 51 55 43 42 55 63 58 61 61 60 61 50 64 69 72 87 77
92 76 81 57 46 49 48 54 47 48 50 64 83 83 74 73 74 70 69 64 57 55 54 58 62 61 55 56 57 60 64 66 61 61 63 63 67 70 86 82 88 91 87 93
83 68 62 54 47 60 74 75 55 47 53 86 88 79 72 72 73 75 72 68 57 54 59 58 63 66 63 63 66 74 76 71 64 61 62 68 71 75 80 86 88 98 95 92
90 82 66 86 72 76 84 94 74 76 94 92 84 77 78 76 75 75 73 71 57 55 63 63 62 60 57 56 58 69 75 69 62 62 63 66 70 73 72 80 88 88 86 81
88 88 76 70 76 85 97 100 95 97 91 84 82 80 79 78 78 77 76 74 67 61 60 67 69 66 63 62 62 65 66 67 59 38 32 34 32 30 28 27 24 22 20 17
89 94 83 62 81 94 99 98 98 99 94 92 92 87 82 80 78 78 75 74 74 72 62 61 68 67 61 47 40 39 33 27 25 27 29 29 26 21 19 18 17 18 18 17
83 80 74 65 87 94 96 92 95 97 95 96 93 86 83 82 80 80 76 74 75 76 74 57 59 55 41 31 29 25 24 27 30 30 27 24 20 19 21 22 22 20 18 15
84 68 68 71 78 91 95 96 99 96 98 98 94 84 78 84 83 82 80 77 77 79 78 65 57 47 33 30 26 25 29 31 31 29 26 22 21 22 23 24 23 21 18 15
74 72 71 76 74 78 82 94 97 98 98 97 96 90 80 78 80 83 82 83 83 83 85 73 54 40 33 31 25 27 30 32 31 28 26 24 23 24 26 26 25 23 21 19
89 92 88 96 84 82 90 92 86 88 95 96 96 84 84 80 79 77 82 84 87 90 89 90 63 41 34 32 27 26 31 32 31 29 28 26 26 27 29 29 28 28 27 25
92 74 79 78 80 83 87 86 83 80 76 72 79 74 75 85 82 81 80 85 86 93 92 97 93 80 41 35 30 26 30 32 32 30 30 28 28 31 33 33 34 36 34 30
66 70 76 78 78 82 79 75 72 69 66 65 65 63 64 73 82 85 85 88 86 95 96 100 98 96 89 45 35 28 28 32 33 32 31 31 32 35 37 38 40 43 41 38
68 69 70 73 78 76 73 74 76 76 76 80 77 72 72 72 80 81 87 88 90 99 99 100 99 100 97 88 47 34 28 30 33 33 32 33 35 38 38 41 47 49 46 43
67 70 70 72 70 72 76 79 75 82 85 86 99 98 91 84 84 82 82 85 87 96 100 100 95 100 99 98 88 48 30 28 33 34 33 34 37 39 40 45 51 51 49 46
82 83 87 86 85 81 75 75 80 80 78 85 98 99 100 100 92 87 83 82 87 97 100 100 100 98 100 98 96 62 35 28 31 34 34 35 38 41 42 47 49 51 51 48
96 97 87 87 91 98 100 99 89 80 74 76 96 100 100 99 99 91 84 81 81 84 98 100 99 100 100 98 98 86 38 30 30 34 34 35 39 42 44 48 49 49 51 45
97 100 100 99 98 99 99 100 97 94 91 91 91 97 99 99 100 100 99 96 95 95 100 100 99 97 99 98 97 84 40 33 30 33 35 36 37 42 44 48 50 50 52 40
99 99 98 99 98 98 98 99 90 82 82 89 94 94 98 99 100 99 98 99 100 100 99 99 99 99 98 98 97 90 47 37 31 33 52 48 42 40 43 47 51 52 53 28
96 96 96 94 96 96 97 98 98 98 98 98 98 97 97 97 98 98 99 99 98 96 97 98 98 98 98 97 97 92 48 44 36 57 80 62 77 38 41 45 52 55 50 19
94 90 92 94 93 94 94 94 90 82 80 80 81 80 83 80 88 97 97 96 97 99 97 98 98 98 98 97 97 92 51 48 37 67 74 90 62 36 38 42 50 58 52 14
89 93 94 92 91 89 80 71 66 61 55 50 48 52 58 61 81 79 92 96 97 97 98 98 98 97 97 97 96 96 84 65 73 80 76 90 43 36 36 38 47 75 56 15
98 96 96 94 90 85 78 70 63 57 48 36 26 19 25 41 57 68 80 78 89 96 97 96 95 96 96 96 97 97 96 95 95 94 91 92 64 66 76 78 88 93 46 19
96 94 87 83 77 65 50 40 31 24 17 7 3 3 3 6 27 50 61 64 81 92 94 95 95 96 97 97 96 96 96 95 95 95 96 95 92 84 53 70 96 95 35 26
87 76 59 46 36 25 12 6 4 3 2 2 2 2 2 2 2 5 25 51 64 82 100 99 98 98 98 97 96 96 96 97 97 97 95 89 88 77 69 94 95 78 20 32
50 30 21 19 18 13 7 4 3 3 2 2 2 2 2 2 2 2 2 4 21 54 93 95 100 100 99 98 98 98 98 98 98 98 96 98 98 97 96 96 92 23 26 35

GFSNGP_700_rhum_054.txt.gz
RH
62 53 45 53 59 86 82 66 64 59 52 45 42 52 61 58 56 72 70 69 64 57 50 47 47 48 49 43 33 32 32 34 36 28 34 44 44 42 42 44 26 26 29 35
69 67 58 53 49 48 57 62 66 63 53 54 58 56 52 46 60 73 69 67 61 54 49 48 51 53 49 42 41 47 50 40 35 44 49 47 51 52 51 53 37 44 59 63
86 80 69 58 40 37 35 38 42 49 39 44 46 46 43 49 74 71 70 65 59 54 54 50 52 61 63 50 54 56 52 53 53 53 50 52 53 56 57 57 55 58 59 56
86 73 94 43 52 44 38 39 38 42 47 71 70 72 58 80 74 69 71 68 62 54 53 53 54 59 62 60 60 63 64 67 60 56 57 57 59 62 62 60 62 69 68 72
86 80 52 46 50 46 60 57 57 47 52 67 69 67 81 78 71 72 73 71 62 56 55 61 58 56 56 58 61 65 69 68 60 55 53 56 55 53 53 57 67 78 79 60
82 75 86 84 72 65 79 88 74 61 70 63 56 84 80 73 74 74 75 73 67 62 57 54 58 58 55 53 52 56 64 61 58 48 41 37 34 33 34 29 26 22 19 18
83 78 76 71 68 78 96 97 89 77 70 84 88 80 78 78 78 77 78 76 73 70 60 51 59 61 58 50 54 58 60 50 27 25 27 28 27 24 20 19 19 21 21 19
87 94 83 64 63 86 84 95 100 98 96 91 84 83 81 81 81 80 77 75 75 73 69 58 54 57 53 38 32 32 28 24 25 29 29 25 21 20 20 23 24 23 21 19
75 78 74 73 69 83 95 100 98 100 100 99 94 91 95 92 89 82 78 77 80 77 71 66 54 51 44 33 29 24 24 28 30 30 27 24 21 21 23 25 26 25 23 21
82 65 75 66 75 74 79 88 99 99 98 100 99 98 97 91 90 86 84 81 84 85 79 75 64 54 42 32 29 24 26 30 31 29 27 25 24 23 25 27 29 28 28 28
73 68 70 72 70 69 76 88 87 94 92 97 97 96 89 89 82 82 87 87 86 89 88 83 73 56 41 34 31 26 27 30 31 30 29 27 26 26 28 30 32 32 34 36
75 73 74 76 82 75 77 83 87 91 89 91 94 95 93 88 87 82 81 86 91 91 92 90 84 67 46 36 34 29 26 29 31 32 30 29 29 29 31 34 36 37 39 41
94 94 91 90 82 78 80 80 78 79 79 76 78 80 88 93 77 83 82 84 90 95 94 92 93 92 89 71 40 35 29 28 30 32 32 31 31 31 33 36 38 40 43 48
75 77 79 79 73 75 78 76 75 73 72 70 67 64 64 68 86 66 80 85 87 88 95 99 96 98 100 98 87 47 36 29 28 32 33 33 33 33 36 38 39 43 47 46
72 74 76 74 74 74 75 74 70 69 68 72 72 68 67 68 68 67 71 82 87 90 91 99 99 99 98 100 99 93 60 38 29 29 33 34 34 34 37 40 41 44 45 44
65 71 72 73 74 75 72 67 69 75 73 69 72 79 80 84 89 87 82 83 88 91 98 99 100 99 100 98 100 100 95 79 39 29 30 34 34 34 38 40 42 45 46 44
72 74 79 80 77 74 75 81 80 75 75 75 80 84 87 97 100 100 100 95 94 90 92 96 100 100 96 100 97 100 98 96 55 33 30 32 34 34 37 40 42 45 47 46
77 81 83 83 82 89 94 98 93 84 80 75 72 74 81 100 99 100 100 100 96 90 90 88 100 99 100 99 99 98 98 98 84 42 31 30 34 34 39 43 44 43 46 48
92 96 100 100 100 98 98 98 100 100 96 89 78 76 80 98 97 98 100 99 100 100 100 100 100 100 96 100 99 99 98 97 92 49 34 32 33 39 74 74 64 41 44 48
100 97 97 100 98 98 99 100 99 96 91 88 98 100 99 97 94 98 97 97 99 100 99 99 100 100 100 99 98 98 97 98 95 67 43 35 34 67 77 85 72 38 41 47
97 98 98 97 97 97 96 96 96 97 97 96 97 97 97 97 96 92 88 89 94 99 99 97 98 99 98 98 97 98 97 98 97 85 50 43 44 80 91 94 52 36 38 44
96 95 97 97 96 95 91 89 83 84 85 71 62 65 64 67 77 84 82 93 98 96 98 97 95 98 98 97 97 98 97 97 96 95 66 44 44 68 85 93 50 44 54 64
97 97 97 96 94 90 86 82 77 72 65 60 53 44 34 28 32 52 70 79 85 97 99 98 98 97 97 97 97 97 97 96 96 97 96 82 89 92 93 95 93 95 91 70
97 98 97 92 89 85 78 73 59 46 36 31 28 25 17 11 10 15 35 55 76 82 92 98 97 97 97 96 96 96 96 97 97 96 96 96 96 96 96 97 96 90 58 87
96 96 94 89 83 78 60 43 27 11 5 3 3 2 2 2 2 3 4 21 49 62 81 90 91 92 94 98 98 99 98 97 97 98 98 97 97 98 98 96 85 90 96 96
96 93 81 64 48 37 26 20 14 8 4 3 2 2 2 2 2 2 2 2 6 27 54 61 85 95 95 95 93 94 99 99 98 99 98 97 97 97 97 98 98 97 95 92
84 76 70 60 39 23 18 15 12 6 3 3 3 3 3 2 2 2 2 2 2 2 7 14 64 81 95 100 99 99 99 98 98 98 98 97 97 98 98 96 96 96 95 73

GFSNGP_700_rhum_060.txt.gz
RH
74 69 72 72 72 81 90 77 91 74 71 61 47 39 34 36 48 49 44 53 71 68 66 62 56 51 49 49 49 48 51 49 36 31 34 40 34 37 45 42 42 42 43 46
68 65 65 60 52 76 78 83 88 82 71 64 57 50 45 44 43 46 45 45 73 70 67 62 54 53 50 48 51 56 51 44 38 50 45 41 49 47 46 48 49 48 47 46
62 64 70 65 42 50 44 46 55 80 40 65 57 53 50 53 48 40 45 45 74 72 70 63 53 53 52 51 56 60 53 51 56 53 54 55 54 54 54 51 48 53 61 57
72 85 84 37 51 51 45 47 43 36 32 38 63 56 54 57 50 49 48 47 75 73 70 62 54 55 52 51 56 61 60 63 63 62 59 56 54 52 46 45 54 60 47 23
73 91 55 35 46 49 48 37 39 36 35 38 50 66 58 56 56 53 50 70 75 73 71 63 55 55 54 51 51 54 64 69 64 57 54 50 44 36 32 28 23 21 20 21
84 83 92 77 81 69 69 54 44 43 42 39 47 56 50 57 58 62 76 79 75 76 74 67 58 53 50 51 48 52 62 61 56 49 39 32 26 24 21 19 20 23 23 22
83 82 72 54 66 71 82 62 70 69 70 47 50 57 61 65 60 78 84 79 78 79 74 71 65 56 53 48 47 54 58 57 37 28 27 26 23 20 20 22 24 24 25 24
79 87 81 58 68 69 69 75 84 76 68 74 66 65 63 60 80 86 84 84 82 79 76 71 70 58 54 47 39 46 46 29 25 27 28 25 22 21 21 23 24 26 27 28
67 64 59 71 69 67 65 78 93 98 98 94 90 90 93 96 98 99 91 88 88 82 79 76 70 59 55 48 36 30 26 24 27 28 28 26 24 23 23 24 26 28 30 32
78 67 68 73 71 69 70 77 89 96 97 98 97 97 99 98 98 98 99 98 96 91 88 82 76 72 64 54 38 32 26 25 28 29 30 28 26 25 25 26 28 30 33 36
81 76 75 76 75 74 77 76 79 96 97 94 94 98 100 99 99 99 100 100 99 98 96 91 85 80 73 60 45 34 30 26 28 30 31 30 29 28 28 29 30 32 35 37
79 75 84 81 75 69 71 79 84 92 100 95 96 100 100 99 99 100 98 100 99 98 99 99 94 91 83 71 52 40 35 30 28 29 31 32 31 31 30 31 31 33 36 38
75 74 94 90 73 63 79 92 98 98 96 96 96 97 95 95 98 96 94 98 100 100 96 96 96 96 96 91 86 70 45 37 34 29 29 31 32 32 32 32 32 34 36 39
82 81 78 80 79 73 79 96 98 98 94 86 84 82 82 84 84 81 79 79 85 97 93 93 94 100 97 95 95 96 99 94 58 40 34 30 30 31 33 33 33 34 36 38
99 94 97 99 90 82 85 91 93 90 82 81 78 75 72 68 69 70 70 68 70 71 97 96 95 99 98 100 96 100 100 100 100 96 76 52 42 33 31 32 33 33 34 37
96 94 93 94 89 84 84 83 83 82 78 76 74 70 66 64 68 68 73 76 77 85 93 94 96 99 99 100 94 94 97 94 93 98 98 98 95 79 37 31 32 33 33 34
93 98 96 96 91 85 83 82 79 79 79 74 70 66 65 67 68 74 78 90 100 100 100 100 100 98 99 99 99 100 100 99 89 94 97 98 98 97 84 41 32 32 33 33
99 97 96 96 97 92 90 86 86 89 86 79 75 68 61 63 66 74 84 93 100 99 98 99 99 100 100 100 99 99 99 99 98 98 98 98 98 97 96 93 68 43 36 38
99 100 98 99 100 100 100 100 100 99 99 100 98 96 92 86 80 82 88 91 98 95 99 92 94 99 99 98 98 98 98 98 98 99 99 98 97 97 97 96 94 69 52 52
97 98 100 100 100 97 96 95 96 99 100 100 100 100 100 99 95 91 90 92 94 96 96 98 98 99 98 98 99 99 98 97 97 99 99 97 97 97 96 96 95 89 76 69
100 93 96 100 100 100 100 98 96 96 95 88 86 85 86 83 83 92 96 97 97 98 98 96 96 98 98 94 95 97 98 98 99 98 97 97 97 96 96 96 96 94 86 93
100 98 97 97 98 98 97 97 95 88 78 64 55 53 54 55 61 64 61 41 37 53 75 84 97 99 98 98 95 99 99 97 97 97 97 97 96 96 96 96 96 96 97 96
97 97 97 97 98 96 93 88 80 73 58 43 29 16 8 6 7 15 22 22 18 19 25 43 77 92 98 98 97 97 97 97 97 97 96 96 96 96 96 97 97 96 97 97
97 98 97 97 97 94 91 81 74 59 41 27 18 10 6 4 3 2 2 2 3 4 6 13 35 72 90 100 98 97 97 97 97 96 96 96 97 96 96 98 96 96 96 95
97 96 96 97 96 96 87 68 55 40 30 23 18 13 8 4 3 3 2 2 2 2 2 3 5 28 76 92 95 96 95 94 93 92 93 93 92 91 94 96 97 98 97 93
95 95 93 93 94 93 89 78 68 58 49 36 24 15 10 6 4 3 3 3 2 2 2 2 2 6 19 76 95 99 99 97 95 94 94 95 95 96 97 98 99 97 94 92
92 97 95 93 94 94 93 91 84 74 63 52 40 25 13 7 4 4 4 4 3 2 2 2 2 2 2 7 13 54 85 94 98 99 100 100 99 99 98 99 99 97 96 95

GFSNGP_700_rhum_063.txt.gz
RH
79 72 74 76 76 75 87 84 93 79 73 59 54 54 55 44 43 47 44 48 49 69 71 68 67 62 57 52 49 47 47 49 47 51 46 33 29 35 37 33 43 42 41 42
71 73 70 65 62 65 78 85 88 83 73 68 68 65 51 42 38 39 46 51 48 54 72 70 67 61 54 52 49 49 51 53 52 51 40 37 46 38 44 45 46 48 48 48
70 68 71 69 50 56 52 49 64 88 39 60 64 66 62 58 52 42 44 48 46 45 74 73 68 61 54 53 51 50 55 58 52 46 51 52 50 52 51 51 52 55 58 58
70 70 88 41 41 41 42 42 51 47 39 36 32 52 69 62 56 52 55 50 50 48 71 74 70 63 54 52 52 51 55 56 55 58 60 58 57 55 53 48 51 58 58 39
76 89 63 47 40 45 51 41 46 38 38 39 43 46 40 60 54 55 56 52 50 49 76 74 73 66 56 53 52 49 50 58 64 66 63 57 54 51 46 43 39 26 20 21
90 86 91 64 77 68 66 53 64 57 46 43 45 42 34 57 57 56 58 59 56 75 78 76 75 67 58 51 50 48 50 60 60 56 54 48 41 33 25 21 21 22 23 23
85 80 69 55 60 71 77 66 74 80 76 58 42 40 40 51 63 62 62 64 82 83 79 81 76 72 63 53 48 45 52 57 54 42 34 32 26 23 20 20 23 24 24 24
86 91 82 63 63 65 73 66 79 87 79 67 62 53 57 68 70 68 62 85 88 85 85 82 77 73 66 55 46 46 57 58 34 26 27 27 24 21 20 21 23 24 25 27
71 65 61 67 73 75 72 74 80 96 98 92 84 82 80 76 72 80 91 89 88 94 94 84 80 73 62 57 48 37 36 31 26 27 28 27 24 23 22 22 24 26 28 30
78 65 68 70 72 73 77 78 80 96 96 97 98 99 99 96 96 96 97 98 98 97 98 93 87 81 76 65 55 40 32 27 26 29 30 29 27 26 25 25 26 28 30 31
81 75 72 70 78 73 70 73 80 81 96 96 91 89 92 98 99 99 100 99 99 100 99 98 95 89 85 77 64 49 36 31 27 28 30 30 30 29 28 28 28 29 31 32
85 88 94 82 85 84 74 67 76 82 91 100 99 98 100 99 99 99 100 98 100 99 100 100 99 96 95 88 75 60 44 35 31 28 29 30 31 31 31 31 31 31 32 33
83 76 78 77 84 81 75 73 85 89 92 96 96 96 92 97 98 97 97 96 96 97 96 98 99 99 98 99 92 82 62 45 38 35 31 30 30 31 31 32 32 33 33 33
92 85 78 72 77 82 80 69 85 94 95 93 92 87 84 83 83 83 87 90 88 81 84 98 98 100 100 100 100 98 94 92 93 70 48 38 34 33 32 31 32 32 33 34
80 98 91 89 97 98 95 85 86 98 96 87 82 80 78 78 78 76 72 71 71 73 72 74 81 99 98 98 99 100 98 96 100 97 96 94 76 60 50 48 42 34 32 33
82 97 97 100 96 96 86 85 87 88 92 92 82 76 73 71 67 65 66 66 66 74 80 82 85 98 97 96 98 98 100 100 100 93 92 93 96 96 94 95 92 68 39 33
80 90 90 92 99 97 93 87 90 88 85 84 84 80 76 70 63 60 63 65 70 78 89 98 100 100 98 97 96 99 98 98 95 91 94 93 89 92 98 98 98 96 86 73
98 92 97 94 97 96 97 97 96 92 87 82 79 75 68 59 54 57 61 65 73 90 100 100 97 97 99 99 99 98 98 98 98 98 98 96 98 96 98 97 97 97 97 95
92 94 88 89 97 97 98 100 100 97 96 96 100 99 95 91 89 85 82 78 80 92 98 99 95 92 97 98 95 93 99 100 98 99 98 98 98 98 98 97 97 96 96 96
97 97 97 98 98 99 97 97 91 96 95 100 100 97 97 96 93 95 95 94 93 96 96 96 98 97 94 95 97 99 99 99 100 99 98 97 97 97 97 97 97 96 96 96
100 98 97 96 96 96 96 97 98 97 97 89 76 67 65 69 73 76 81 85 83 89 95 97 97 97 97 97 95 98 99 98 98 98 98 97 97 96 97 97 96 96 96 96
100 97 97 97 97 96 98 98 98 96 81 65 50 39 30 22 22 29 32 36 46 65 75 62 42 51 83 90 97 97 97 98 97 96 97 97 97 97 97 96 96 96 96 97
98 97 97 98 97 97 96 96 90 75 64 47 32 22 16 9 5 4 3 3 4 8 14 20 22 20 32 68 93 97 96 96 96 97 97 97 97 96 96 96 96 96 96 100
97 96 96 97 97 97 96 94 80 67 50 35 27 23 19 15 9 4 3 3 2 2 2 2 4 8 11 27 72 95 100 97 96 97 96 96 96 96 96 95 92 90 95 98
96 95 96 96 96 96 97 96 81 59 53 50 45 39 33 24 16 10 4 3 3 3 2 2 2 2 3 7 25 84 100 100 98 98 99 99 98 96 95 93 91 91 96 98
92 93 96 96 96 96 96 96 96 96 91 80 69 61 53 45 32 20 9 4 4 4 3 2 2 2 2 4 7 50 76 89 100 100 100 99 98 98 98 98 98 98 99 99
83 82 83 95 96 94 92 93 93 91 85 75 63 56 50 46 41 32 20 8 4 4 4 3 2 2 2 2 3 6 11 33 46 71 87 92 95 97 98 100 100 100 100 100

GFSNGP_700_rhum_066.txt.gz
RH
79 80 78 72 86 81 97 91 98 87 84 64 58 60 59 58 62 50 41 49 49 52 61 68 70 67 65 62 57 53 50 47 45 44 46 48 50 45 32 31 37 35 42 42
76 77 77 74 74 82 83 82 92 90 81 65 63 70 66 65 62 51 46 47 50 50 48 67 74 69 66 62 55 52 52 50 49 50 52 52 48 39 44 42 43 46 46 49
80 72 72 74 50 56 60 57 57 84 46 58 59 59 62 68 52 60 54 45 53 53 50 46 72 73 69 65 56 54 51 50 51 55 56 49 45 52 51 52 52 50 53 53
82 75 82 49 48 46 48 46 49 47 40 43 40 43 45 64 69 61 56 50 54 52 51 49 54 74 71 67 58 54 53 51 52 57 54 56 58 57 57 55 53 50 55 57
81 83 66 43 50 55 47 39 50 49 43 42 37 36 37 45 44 57 60 60 60 56 54 52 64 75 73 70 60 52 51 49 52 61 61 63 63 59 56 50 49 55 47 23
92 86 90 55 79 78 71 62 80 76 69 53 41 36 32 44 41 57 60 58 60 59 58 55 79 77 78 72 62 52 47 47 52 59 64 60 57 52 43 34 26 21 21 22
94 94 76 62 63 63 69 70 77 85 74 59 60 51 44 47 47 57 60 60 62 64 67 84 83 81 79 74 66 54 43 48 58 53 51 49 41 33 26 21 20 22 24 24
93 95 82 65 69 67 76 72 67 93 84 84 70 60 48 54 53 67 71 71 69 69 91 89 86 86 78 74 65 53 42 56 56 48 36 34 28 25 21 20 21 23 24 25
68 64 60 64 70 74 72 78 80 88 96 95 89 79 76 73 73 74 73 69 71 90 91 94 94 84 78 69 61 52 41 49 47 30 26 28 27 23 21 21 22 23 24 26
77 65 69 74 74 74 81 79 79 81 91 97 90 99 100 96 92 76 72 83 96 100 98 96 98 94 88 80 65 56 43 35 29 26 26 28 29 27 25 24 24 25 26 28
84 74 75 72 83 88 84 75 72 76 81 86 97 96 98 99 92 98 98 99 100 100 100 100 99 98 96 90 80 69 54 38 31 28 27 29 30 30 29 28 27 28 28 29
89 92 90 75 76 72 75 76 72 67 82 84 99 99 97 99 99 99 95 99 98 98 99 100 98 99 99 97 90 78 66 50 38 32 29 28 30 30 31 31 30 30 30 31
74 78 83 91 89 92 74 73 77 71 70 89 94 96 97 97 94 96 97 98 98 95 91 88 97 99 99 100 98 91 78 62 50 41 35 32 30 30 30 31 31 32 32 32
68 95 97 78 89 93 90 76 79 80 81 92 96 98 92 88 83 80 79 79 79 80 80 79 78 86 98 98 100 98 96 91 84 74 61 46 38 35 33 32 31 31 32 32
57 51 97 84 75 76 82 93 98 90 95 98 81 87 88 85 78 75 74 73 70 67 67 68 71 75 77 91 98 98 98 97 98 97 97 100 98 91 70 55 47 48 55 62
65 40 85 70 100 98 96 96 98 93 91 99 99 96 85 80 77 75 72 65 61 61 62 63 65 77 75 72 87 99 98 99 98 97 97 98 99 98 100 100 98 94 95 98
93 78 92 76 86 86 86 91 96 96 94 96 95 91 85 78 74 72 69 63 58 59 63 67 77 80 84 88 86 90 98 99 98 98 97 98 97 96 97 96 95 97 97 96
90 91 100 99 95 97 98 95 97 97 98 95 85 82 82 80 74 68 61 54 53 56 65 71 81 89 98 100 98 97 95 100 99 98 98 98 98 98 97 97 97 97 97 97
94 98 97 94 94 91 93 97 99 97 96 93 92 95 99 99 92 86 84 79 77 77 77 82 93 99 100 98 94 89 96 95 91 90 94 98 98 98 98 98 97 97 97 97
100 100 100 98 98 97 97 96 96 96 96 96 97 97 92 88 83 79 76 82 86 87 90 91 95 98 98 98 98 99 98 98 94 94 100 98 99 100 98 97 97 97 97 96
100 99 97 96 96 95 95 96 97 96 96 96 96 84 53 46 41 43 52 60 67 72 77 82 78 77 81 87 87 88 95 98 99 98 98 97 97 97 97 97 97 97 97 96
93 96 94 90 93 96 96 96 96 96 96 94 62 30 25 17 10 6 4 5 5 8 22 39 65 72 68 52 52 59 60 84 96 97 97 98 98 97 97 97 97 96 96 96
91 92 92 93 92 94 98 97 96 95 86 53 29 23 19 16 13 10 6 4 3 3 2 3 3 5 8 15 42 39 16 43 87 97 96 97 96 97 97 96 96 96 96 96
85 92 94 94 96 96 96 96 96 82 46 40 34 33 30 27 24 19 13 8 5 4 3 3 2 2 2 3 4 4 7 35 94 99 99 97 96 96 96 96 96 96 95 94
96 89 93 95 96 96 96 96 96 97 86 70 69 65 62 56 53 48 42 34 19 9 5 4 4 3 2 2 2 3 8 13 76 100 99 98 96 95 95 95 97 97 97 97
80 89 94 93 92 91 94 95 95 96 95 95 94 87 71 59 52 49 47 44 39 31 16 6 4 4 3 3 2 2 4 7 27 73 97 100 100 100 100 100 100 99 99 99
81 83 90 92 90 89 95 98 97 96 95 94 89 80 68 55 45 42 43 42 37 32 25 13 5 4 4 3 3 3 3 4 5 8 23 46 73 93 96 98 98 99 100 100

GFSNGP_700_rhum_069.txt.gz
RH
79 78 76 76 72 74 93 95 97 82 64 52 48 50 53 58 68 66 62 51 48 50 48 49 52 66 75 75 74 69 60 54 52 50 47 44 44 45 47 48 41 33 38 40
77 75 78 80 76 74 80 91 100 91 66 48 54 63 67 69 73 73 64 45 46 49 51 52 57 74 78 77 74 69 60 55 54 52 49 51 54 53 51 45 42 46 47 48
82 75 72 65 49 51 57 58 64 78 41 50 48 52 52 64 70 64 64 64 50 51 55 54 50 48 68 75 74 72 61 54 52 51 51 53 59 54 49 52 55 57 56 57
84 82 86 53 54 50 48 46 54 52 39 45 34 34 34 42 48 69 54 54 53 56 60 57 53 50 47 72 74 73 66 57 54 51 52 58 58 60 63 61 62 61 61 61
81 84 66 48 50 60 58 54 58 53 69 69 56 35 24 34 37 43 66 63 57 60 61 54 53 53 54 76 77 75 67 56 49 48 52 62 63 67 69 64 61 58 64 54
91 90 88 60 79 77 76 76 82 77 83 76 63 50 46 38 36 37 35 50 62 59 60 60 58 55 52 79 78 76 67 56 47 45 55 65 70 69 66 59 58 59 38 21
95 87 70 63 64 63 66 72 78 75 81 73 61 62 60 46 39 42 43 58 65 63 64 62 62 64 83 82 82 74 70 56 44 53 58 58 60 61 54 40 26 21 21 22
96 96 86 64 71 69 74 75 76 83 87 84 93 75 59 53 56 52 51 63 63 65 64 64 65 89 86 86 78 73 66 50 52 55 51 48 45 41 30 23 20 20 23 24
71 65 62 63 70 75 78 77 79 75 79 86 94 94 79 74 72 74 76 72 68 68 66 64 91 92 91 85 77 67 59 46 54 56 44 32 30 27 25 21 20 21 23 24
79 65 70 76 79 81 89 74 78 80 82 85 82 84 96 98 97 86 78 74 72 69 88 98 95 94 97 89 87 79 62 50 42 40 30 27 28 28 24 23 22 22 23 24
79 79 81 79 83 85 88 90 87 77 73 78 85 89 93 88 97 90 86 97 99 100 99 100 98 95 99 100 96 92 80 63 46 36 30 27 29 30 28 26 26 26 26 27
73 85 82 75 87 91 89 87 85 83 75 72 88 96 99 99 96 96 97 98 97 98 97 94 91 94 99 97 100 99 94 74 55 40 33 29 28 30 30 30 29 29 30 30
65 68 68 63 68 79 82 97 95 78 76 72 75 97 100 99 98 98 94 94 96 96 96 95 92 89 90 100 100 99 98 96 70 52 40 34 31 30 30 30 31 31 31 32
78 71 65 62 84 88 78 95 94 91 78 82 82 90 100 100 99 100 95 86 79 79 78 77 75 76 77 78 92 100 99 98 98 96 60 44 39 36 35 33 32 32 32 32
72 81 63 26 65 98 92 78 85 82 84 93 94 98 100 91 96 97 91 84 78 78 78 72 67 69 70 70 72 85 100 99 98 98 98 94 93 93 94 87 69 51 47 46
75 84 62 53 69 80 70 98 98 99 98 98 98 98 99 100 100 92 87 80 74 72 72 67 65 67 66 69 76 78 78 90 99 99 98 98 98 97 97 97 97 97 96 96
68 78 75 88 88 94 98 98 94 88 92 97 97 97 97 98 92 86 84 78 72 69 65 61 62 62 64 75 84 86 89 94 95 98 100 99 99 98 98 98 98 97 97 96
92 83 88 95 95 98 100 100 99 98 97 97 98 97 96 90 86 87 80 72 65 60 55 54 55 60 70 78 97 99 100 100 100 96 95 94 97 97 97 98 97 97 98 97
99 96 97 100 99 100 99 98 96 94 97 99 98 94 96 96 99 98 88 89 94 89 82 81 80 82 84 92 87 99 99 96 94 94 95 98 98 93 92 95 97 97 97 97
97 100 100 98 96 95 95 96 98 100 98 97 96 97 96 96 87 79 76 75 77 80 84 88 89 90 92 98 98 98 99 99 98 98 96 97 99 99 100 100 97 97 97 96
94 98 99 97 93 95 96 97 95 95 96 97 97 96 95 89 34 19 16 15 15 20 37 60 72 76 78 83 84 86 82 74 74 74 82 96 97 96 98 99 98 98 97 97
89 89 93 95 94 94 94 94 97 96 96 96 96 90 30 17 12 10 9 6 5 3 3 3 3 12 30 51 64 66 56 51 51 40 32 64 97 97 97 97 97 97 97 97
86 89 90 94 98 98 97 97 95 99 96 95 80 37 20 17 18 19 18 15 9 6 4 3 3 3 2 2 2 3 8 26 58 45 21 74 97 97 96 96 96 96 96 96
89 93 92 92 95 96 96 94 95 96 96 95 62 48 44 44 47 46 48 44 39 34 25 15 7 4 4 3 3 2 2 3 3 6 15 86 99 98 99 98 98 97 96 96
64 76 90 96 97 96 97 97 97 96 97 97 97 94 88 81 71 65 59 54 52 50 47 43 35 22 9 4 4 3 3 2 3 5 9 73 100 100 100 100 99 99 97 95
71 72 76 86 94 98 96 96 96 96 96 96 97 96 94 92 82 63 53 46 44 44 44 41 37 31 20 8 5 4 3 3 3 4 6 14 49 74 91 96 96 95 96 97
78 83 87 88 90 93 94 93 96 97 97 96 95 92 88 79 70 61 48 37 31 30 32 32 31 26 20 12 6 4 4 4 4 4 4 5 7 8 14 24 37 50 52 50